Weather in Neklyudovo

Russia / Vladimir Oblast     55°50′28″N   40°31′30″E
temp.,
°C
wind,
m/s
gust,
m/s
humid.,
%
clouds,
%
prec.,
mm/h
press.,
hPa
HPBL,
m
4 march, thu
thu400:00−1w41193100 0.1 1006740
03:00−2wsw61394100 0.3 1003697
06:000wsw71597100 0.9 9991137
09:00+1w71498100 1.6 9981040
12:000wnw61199100 0.8 998763
15:000wnw3784100 1.3 9981170
18:00−3nnw2589100 0.0 999156
21:00−6nnw2291100 0.0 100028
5 march, fri
fri500:00−8nnw2296100 0.0 100123
03:00−9nw2296100 0.1 100328
06:00−10wnw229788 0.0 100424
09:00−8wnw249583 0.1 1006175
12:00−4w359086 0.1 1007639
15:00−3wnw468393 0.9 1008883
18:00−6nw248999 0.5 101086
21:00−10wnw249068 0.5 101358
6 march, sat
sat600:00−13nnw229519 0.0 101520
03:00−15nne118810 0.0 101620
06:00−16s00850 0.0 101620
09:00−12s118520 0.0 101648
12:00−7n118289 0.0 1016426
15:00−7nnw228693 0.1 1015497
18:00−10nnw2293100 0.1 101529
21:00−14wnw229158 0.1 101520
7 march, sun
sun700:00−15sw23920 0.0 101436
03:00−13ssw410900 0.0 1011241
06:00−11ssw5139066 0.0 1008441
09:00−8ssw7149083 0.2 1003782
12:00−5sw81492100 0.8 9991200
15:00−4sw71494100 2.8 9951118
18:00−5wnw51284100 1.8 9951125
21:00−10wsw4118069 1.8 998254
8 march, mon
mon800:00−11sw4128318 0.0 998339
03:00−9sw5128454 0.0 997521
06:00−10ssw4109189 0.0 995418
09:00−8sw489595 0.7 994608
12:00−7w5784100 0.7 996945
15:00−6wnw6987100 0.9 9991062
18:00−9nw51285100 0.4 1003806
21:00−12wnw4119277 0.4 1007385